User: anonymous   Login
Location: Unspecified
(0.0000°N, 0.0000°E)
Time: 00:07:52
(UTC+00:00)
Language:

STARLINK-4084 - Orbit

View from above orbital plane
View from above orbital plane
View from above satellite
View from above satellite

Ground track
Ground track

The orbit is defined by the following mean orbital elements,

1 52657U          26145.36878751 +.00000000 +00000-0 +33701-4 0 00009
2 52657  53.2133 170.2126 0001090  80.4152 279.6963 15.08835724    08
Epoch (UTC): 25 May 2026 08:51:03
Eccentricity: 0.0001090
inclination: 53.2133°
perigee height: 539 km
apogee height: 541 km
right ascension of ascending node: 170.2126°
argument of perigee: 80.4152°
revolutions per day: 15.08835724
mean anomaly at epoch: 279.6963°

The dashed part of the orbit path shows where the satellite is in the earth's shadow,  

DLR